Time,TemperatureF,DewpointF,PressureIn,WindDirection,WindDirectionDegrees,WindSpeedMPH,WindSpeedGustMPH,Humidity,HourlyPrecipIn,Conditions,Clouds,dailyrainin,SoftwareType,DateUTC
2013-08-30 00:00:00,68.4,67.2,29.96,SE,144,0.0,0.0,96,0.00,,---,0.00,VWS V14.01,2013-08-30 04:00:00,
2013-08-30 00:01:00,68.4,67.2,29.96,SE,143,0.0,0.0,96,0.00,,---,0.00,VWS V14.01,2013-08-30 04:01:00,
2013-08-30 00:07:00,68.4,67.2,29.96,SE,143,0.0,0.0,96,0.00,,---,0.00,VWS V14.01,2013-08-30 04:07:00,
2013-08-30 00:12:00,68.3,67.1,29.96,SE,143,0.0,0.0,96,0.00,,---,0.00,VWS V14.01,2013-08-30 04:12:00,
2013-08-30 00:17:00,68.1,66.6,29.96,SE,143,0.0,0.0,95,0.00,,---,0.00,VWS V14.01,2013-08-30 04:17:00,
2013-08-30 00:22:00,68.0,66.5,29.96,SE,144,0.0,0.0,95,0.00,,---,0.00,VWS V14.01,2013-08-30 04:22:00,
2013-08-30 00:27:00,67.9,66.7,29.96,SE,144,0.0,0.0,96,0.00,,---,0.00,VWS V14.01,2013-08-30 04:27:00,
2013-08-30 00:30:00,67.8,66.3,29.96,SE,143,0.0,0.0,95,0.00,,---,0.00,VWS V14.01,2013-08-30 04:30:00,
2013-08-30 00:32:00,67.7,66.2,29.96,SE,143,0.0,0.0,95,0.00,,---,0.00,VWS V14.01,2013-08-30 04:32:00,
2013-08-30 00:37:00,67.7,66.5,29.96,SE,144,0.0,0.0,96,0.00,,---,0.00,VWS V14.01,2013-08-30 04:37:00,
2013-08-30 00:42:00,67.6,66.4,29.96,SE,143,0.0,0.0,96,0.00,,---,0.00,VWS V14.01,2013-08-30 04:42:00,
2013-08-30 00:47:00,67.5,66.3,29.96,SE,143,0.0,0.0,96,0.00,,---,0.00,VWS V14.01,2013-08-30 04:47:00,
2013-08-30 00:52:00,67.7,66.5,29.96,SE,143,0.0,0.0,96,0.00,,---,0.00,VWS V14.01,2013-08-30 04:52:00,
2013-08-30 00:57:00,67.8,66.6,29.96,SE,144,0.0,0.0,96,0.00,,---,0.00,VWS V14.01,2013-08-30 04:57:00,
2013-08-30 01:00:00,67.9,66.7,29.95,SE,145,0.0,0.0,96,0.00,,---,0.00,VWS V14.01,2013-08-30 05:00:00,
2013-08-30 01:05:00,67.9,66.7,29.95,SE,144,0.0,0.0,96,0.00,,---,0.00,VWS V14.01,2013-08-30 05:05:00,
2013-08-30 01:10:00,67.8,66.6,29.96,SE,143,0.0,0.0,96,0.00,,---,0.00,VWS V14.01,2013-08-30 05:10:00,
2013-08-30 01:15:00,67.8,66.6,29.96,SE,144,0.0,0.0,96,0.00,,---,0.00,VWS V14.01,2013-08-30 05:15:00,
2013-08-30 01:20:00,67.6,66.1,29.96,SE,143,0.0,0.0,95,0.00,,---,0.00,VWS V14.01,2013-08-30 05:20:00,
2013-08-30 01:25:00,67.5,66.0,29.96,SE,144,0.0,0.0,95,0.00,,---,0.00,VWS V14.01,2013-08-30 05:25:00,
2013-08-30 01:30:00,67.3,65.8,29.96,SE,143,0.0,0.0,95,0.00,,---,0.00,VWS V14.01,2013-08-30 05:30:00,
2013-08-30 01:35:00,67.2,65.7,29.96,SE,144,0.0,0.0,95,0.00,,---,0.00,VWS V14.01,2013-08-30 05:35:00,
2013-08-30 01:40:00,67.0,65.5,29.96,SE,144,0.0,0.0,95,0.00,,---,0.00,VWS V14.01,2013-08-30 05:40:00,
2013-08-30 01:45:00,66.7,65.2,29.96,SE,143,0.0,0.0,95,0.00,,---,0.00,VWS V14.01,2013-08-30 05:45:00,
2013-08-30 01:50:00,66.3,64.8,29.97,SE,144,0.0,0.0,95,0.00,,---,0.00,VWS V14.01,2013-08-30 05:50:00,
2013-08-30 01:55:00,66.0,64.5,29.96,SE,143,0.0,0.0,95,0.00,,---,0.00,VWS V14.01,2013-08-30 05:55:00,
2013-08-30 02:00:00,66.2,65.0,29.96,SE,144,0.0,0.0,96,0.00,,---,0.00,VWS V14.01,2013-08-30 06:00:00,
2013-08-30 02:05:00,66.4,65.2,29.96,SE,143,0.0,0.0,96,0.00,,---,0.00,VWS V14.01,2013-08-30 06:05:00,
2013-08-30 02:10:00,66.3,65.1,29.96,SE,144,0.0,0.0,96,0.00,,---,0.00,VWS V14.01,2013-08-30 06:10:00,
2013-08-30 02:15:00,66.2,65.0,29.96,SE,144,0.0,0.0,96,0.00,,---,0.00,VWS V14.01,2013-08-30 06:15:00,
2013-08-30 02:21:00,65.8,64.3,29.96,SE,144,0.0,0.0,95,0.00,,---,0.00,VWS V14.01,2013-08-30 06:21:00,
2013-08-30 02:26:00,65.5,64.0,29.96,SE,144,0.0,0.0,95,0.00,,---,0.00,VWS V14.01,2013-08-30 06:26:00,
2013-08-30 02:30:00,65.2,63.7,29.96,SE,143,0.0,0.0,95,0.00,,---,0.00,VWS V14.01,2013-08-30 06:30:00,
2013-08-30 02:31:00,65.2,63.7,29.96,SE,144,0.0,0.0,95,0.00,,---,0.00,VWS V14.01,2013-08-30 06:31:00,
2013-08-30 02:36:00,65.5,64.3,29.96,SE,144,0.0,0.0,96,0.00,,---,0.00,VWS V14.01,2013-08-30 06:36:00,
2013-08-30 02:41:00,65.3,64.1,29.96,SE,144,0.0,0.0,96,0.00,,---,0.00,VWS V14.01,2013-08-30 06:41:00,
2013-08-30 02:46:00,65.3,64.1,29.96,SE,144,0.0,0.0,96,0.00,,---,0.00,VWS V14.01,2013-08-30 06:46:00,
2013-08-30 02:51:00,65.4,64.2,29.96,SE,144,0.0,0.0,96,0.00,,---,0.00,VWS V14.01,2013-08-30 06:51:00,
2013-08-30 02:56:00,65.3,64.1,29.96,SE,143,0.0,0.0,96,0.00,,---,0.00,VWS V14.01,2013-08-30 06:56:00,
2013-08-30 03:00:00,65.0,63.8,29.96,SE,144,0.0,0.0,96,0.00,,---,0.00,VWS V14.01,2013-08-30 07:00:00,
2013-08-30 03:01:00,65.0,63.8,29.96,SE,143,0.0,0.0,96,0.00,,---,0.00,VWS V14.01,2013-08-30 07:01:00,
2013-08-30 03:06:00,64.6,63.4,29.96,SE,143,0.0,0.0,96,0.00,,---,0.00,VWS V14.01,2013-08-30 07:06:00,
2013-08-30 03:11:00,64.5,63.3,29.96,SE,144,0.0,0.0,96,0.00,,---,0.00,VWS V14.01,2013-08-30 07:11:00,
2013-08-30 03:16:00,64.3,63.1,29.96,SE,144,0.0,0.0,96,0.00,,---,0.00,VWS V14.01,2013-08-30 07:16:00,
2013-08-30 03:21:00,64.3,63.1,29.96,SE,144,0.0,0.0,96,0.00,,---,0.00,VWS V14.01,2013-08-30 07:21:00,
2013-08-30 03:26:00,64.6,63.7,29.95,SE,144,0.0,0.0,97,0.00,,---,0.00,VWS V14.01,2013-08-30 07:26:00,
2013-08-30 03:30:00,64.7,63.8,29.95,SE,144,0.0,0.0,97,0.00,,---,0.00,VWS V14.01,2013-08-30 07:30:00,
2013-08-30 03:31:00,64.7,63.8,29.95,SE,144,0.0,0.0,97,0.00,,---,0.00,VWS V14.01,2013-08-30 07:31:00,
2013-08-30 03:36:00,64.6,63.4,29.95,SE,143,0.0,0.0,96,0.00,,---,0.00,VWS V14.01,2013-08-30 07:36:00,
2013-08-30 03:41:00,64.1,62.9,29.95,SE,144,0.0,0.0,96,0.00,,---,0.00,VWS V14.01,2013-08-30 07:41:00,
2013-08-30 03:46:00,63.9,62.7,29.95,SE,143,0.0,0.0,96,0.00,,---,0.00,VWS V14.01,2013-08-30 07:46:00,
2013-08-30 03:51:00,63.9,62.7,29.95,SE,144,0.0,0.0,96,0.00,,---,0.00,VWS V14.01,2013-08-30 07:51:00,
2013-08-30 03:56:00,63.7,62.5,29.95,SE,144,0.0,0.0,96,0.00,,---,0.00,VWS V14.01,2013-08-30 07:56:00,
2013-08-30 04:00:00,63.8,62.6,29.95,SE,144,0.0,0.0,96,0.00,,---,0.00,VWS V14.01,2013-08-30 08:00:00,
2013-08-30 04:01:00,63.7,62.5,29.95,SE,144,0.0,0.0,96,0.00,,---,0.00,VWS V14.01,2013-08-30 08:01:00,
2013-08-30 04:06:00,63.7,62.5,29.95,SE,144,0.0,0.0,96,0.00,,---,0.00,VWS V14.01,2013-08-30 08:06:00,
2013-08-30 04:11:00,63.6,62.4,29.95,SE,143,0.0,0.0,96,0.00,,---,0.00,VWS V14.01,2013-08-30 08:11:00,
2013-08-30 04:16:00,63.7,62.8,29.95,SE,144,0.0,0.0,97,0.00,,---,0.00,VWS V14.01,2013-08-30 08:16:00,
2013-08-30 04:21:00,64.1,63.2,29.95,SE,144,0.0,0.0,97,0.00,,---,0.00,VWS V14.01,2013-08-30 08:21:00,
2013-08-30 04:26:00,64.0,63.1,29.94,SE,143,0.0,0.0,97,0.00,,---,0.00,VWS V14.01,2013-08-30 08:26:00,
2013-08-30 04:30:00,63.9,63.0,29.94,SE,144,0.0,0.0,97,0.00,,---,0.00,VWS V14.01,2013-08-30 08:30:00,
2013-08-30 04:31:00,63.8,62.9,29.94,SE,144,0.0,0.0,97,0.00,,---,0.00,VWS V14.01,2013-08-30 08:31:00,
2013-08-30 04:36:00,63.6,62.7,29.94,SE,144,0.0,0.0,97,0.00,,---,0.00,VWS V14.01,2013-08-30 08:36:00,
2013-08-30 04:41:00,63.3,62.1,29.95,SE,144,0.0,0.0,96,0.00,,---,0.00,VWS V14.01,2013-08-30 08:41:00,
2013-08-30 04:46:00,63.1,61.9,29.94,SE,144,0.0,0.0,96,0.00,,---,0.00,VWS V14.01,2013-08-30 08:46:00,
2013-08-30 04:51:00,63.4,62.5,29.94,SE,143,0.0,0.0,97,0.00,,---,0.00,VWS V14.01,2013-08-30 08:51:00,
2013-08-30 04:56:00,63.6,62.7,29.94,SE,144,0.0,0.0,97,0.00,,---,0.00,VWS V14.01,2013-08-30 08:56:00,
2013-08-30 05:00:00,63.5,62.6,29.94,SE,144,0.0,0.0,97,0.00,,---,0.00,VWS V14.01,2013-08-30 09:00:00,
2013-08-30 05:01:00,63.4,62.5,29.94,SE,144,0.0,0.0,97,0.00,,---,0.00,VWS V14.01,2013-08-30 09:01:00,
2013-08-30 05:06:00,63.3,62.4,29.94,SE,143,0.0,0.0,97,0.00,,---,0.00,VWS V14.01,2013-08-30 09:06:00,
2013-08-30 05:11:00,63.5,62.6,29.93,SE,143,0.0,0.0,97,0.00,,---,0.00,VWS V14.01,2013-08-30 09:11:00,
2013-08-30 05:16:00,63.6,62.7,29.93,SE,144,0.0,0.0,97,0.00,,---,0.00,VWS V14.01,2013-08-30 09:16:00,
2013-08-30 05:21:00,63.3,62.4,29.94,SE,144,0.0,0.0,97,0.00,,---,0.00,VWS V14.01,2013-08-30 09:21:00,
2013-08-30 05:26:00,62.9,62.0,29.94,SE,143,0.0,0.0,97,0.00,,---,0.00,VWS V14.01,2013-08-30 09:26:00,
2013-08-30 05:30:00,62.8,61.7,29.94,SE,144,0.0,0.0,96,0.00,,---,0.00,VWS V14.01,2013-08-30 09:30:00,
2013-08-30 05:31:00,62.8,61.9,29.94,SE,143,0.0,0.0,97,0.00,,---,0.00,VWS V14.01,2013-08-30 09:31:00,
2013-08-30 05:36:00,62.6,61.7,29.94,SE,143,0.0,0.0,97,0.00,,---,0.00,VWS V14.01,2013-08-30 09:36:00,
2013-08-30 05:41:00,62.5,61.6,29.94,SE,143,0.0,0.0,97,0.00,,---,0.00,VWS V14.01,2013-08-30 09:41:00,
2013-08-30 05:46:00,62.3,61.4,29.94,SE,143,0.0,0.0,97,0.00,,---,0.00,VWS V14.01,2013-08-30 09:46:00,
2013-08-30 05:51:00,62.3,61.4,29.94,SE,143,0.0,0.0,97,0.00,,---,0.00,VWS V14.01,2013-08-30 09:51:00,
2013-08-30 05:56:00,62.5,61.6,29.94,SE,144,0.0,0.0,97,0.00,,---,0.00,VWS V14.01,2013-08-30 09:56:00,
2013-08-30 06:00:00,62.5,61.6,29.94,SE,143,0.0,0.0,97,0.00,,---,0.00,VWS V14.01,2013-08-30 10:00:00,
2013-08-30 06:01:00,62.5,61.6,29.94,SE,143,0.0,0.0,97,0.00,,---,0.00,VWS V14.01,2013-08-30 10:01:00,
2013-08-30 06:06:00,62.7,61.8,29.94,SE,143,0.0,0.0,97,0.00,,---,0.00,VWS V14.01,2013-08-30 10:06:00,
2013-08-30 06:11:00,62.7,61.8,29.94,SE,144,0.0,0.0,97,0.00,,---,0.00,VWS V14.01,2013-08-30 10:11:00,
2013-08-30 06:16:00,62.5,61.6,29.93,SE,144,0.0,0.0,97,0.00,,---,0.00,VWS V14.01,2013-08-30 10:16:00,
2013-08-30 06:21:00,62.2,61.3,29.94,SE,143,0.0,0.0,97,0.00,,---,0.00,VWS V14.01,2013-08-30 10:21:00,
2013-08-30 06:26:00,61.9,61.0,29.94,SE,144,0.0,0.0,97,0.00,,---,0.00,VWS V14.01,2013-08-30 10:26:00,
2013-08-30 06:30:00,61.9,61.0,29.93,SE,144,0.0,0.0,97,0.00,,---,0.00,VWS V14.01,2013-08-30 10:30:00,
2013-08-30 06:31:00,61.9,61.0,29.94,SE,144,0.0,0.0,97,0.00,,---,0.00,VWS V14.01,2013-08-30 10:31:00,
2013-08-30 06:36:00,61.8,60.9,29.94,SE,144,0.0,0.0,97,0.00,,---,0.00,VWS V14.01,2013-08-30 10:36:00,
2013-08-30 06:41:00,62.1,61.2,29.93,SE,143,0.0,0.0,97,0.00,,---,0.00,VWS V14.01,2013-08-30 10:41:00,
2013-08-30 06:46:00,62.0,61.1,29.93,SE,143,0.0,0.0,97,0.00,,---,0.00,VWS V14.01,2013-08-30 10:46:00,
2013-08-30 06:51:00,61.9,61.0,29.94,SE,144,0.0,0.0,97,0.00,,---,0.00,VWS V14.01,2013-08-30 10:51:00,
2013-08-30 06:56:00,61.8,60.9,29.93,SE,143,0.0,0.0,97,0.00,,---,0.00,VWS V14.01,2013-08-30 10:56:00,
2013-08-30 07:00:00,61.8,60.9,29.93,SE,143,0.0,0.0,97,0.00,,---,0.00,VWS V14.01,2013-08-30 11:00:00,
2013-08-30 07:01:00,61.9,61.0,29.93,SE,144,0.0,0.0,97,0.00,,---,0.00,VWS V14.01,2013-08-30 11:01:00,
2013-08-30 07:06:00,62.1,61.2,29.93,SE,143,0.0,0.0,97,0.00,,---,0.00,VWS V14.01,2013-08-30 11:06:00,
2013-08-30 07:11:00,62.3,61.4,29.93,SE,143,0.0,0.0,97,0.00,,---,0.00,VWS V14.01,2013-08-30 11:11:00,
2013-08-30 07:16:00,62.3,61.4,29.93,SE,143,0.0,0.0,97,0.00,,---,0.00,VWS V14.01,2013-08-30 11:16:00,
2013-08-30 07:21:00,62.4,61.5,29.93,SE,143,0.0,0.0,97,0.00,,---,0.00,VWS V14.01,2013-08-30 11:21:00,
2013-08-30 07:26:00,62.3,61.4,29.94,SE,144,0.0,0.0,97,0.00,,---,0.00,VWS V14.01,2013-08-30 11:26:00,
2013-08-30 07:30:00,61.6,60.7,29.94,SE,144,0.0,0.0,97,0.00,,---,0.00,VWS V14.01,2013-08-30 11:30:00,
2013-08-30 07:31:00,61.6,60.7,29.94,SE,144,0.0,0.0,97,0.00,,---,0.00,VWS V14.01,2013-08-30 11:31:00,
2013-08-30 07:36:00,62.0,61.1,29.94,SE,144,0.0,0.0,97,0.00,,---,0.00,VWS V14.01,2013-08-30 11:36:00,
2013-08-30 07:41:00,62.2,61.3,29.94,SE,144,0.0,0.0,97,0.00,,---,0.00,VWS V14.01,2013-08-30 11:41:00,
2013-08-30 07:46:00,62.7,61.8,29.94,SE,143,0.0,0.0,97,0.00,,---,0.00,VWS V14.01,2013-08-30 11:46:00,
2013-08-30 07:51:00,63.0,62.1,29.94,SE,143,0.0,0.0,97,0.00,,---,0.00,VWS V14.01,2013-08-30 11:51:00,
2013-08-30 07:56:00,63.2,62.3,29.94,SE,143,0.0,0.0,97,0.00,,---,0.00,VWS V14.01,2013-08-30 11:56:00,
2013-08-30 08:00:00,63.4,62.8,29.93,SE,143,0.0,0.0,98,0.00,,---,0.00,VWS V14.01,2013-08-30 12:00:00,
2013-08-30 08:01:00,63.4,62.8,29.93,SE,144,0.0,0.0,98,0.00,,---,0.00,VWS V14.01,2013-08-30 12:01:00,
2013-08-30 08:06:00,63.6,63.0,29.93,SE,143,0.0,0.0,98,0.00,,---,0.00,VWS V14.01,2013-08-30 12:06:00,
2013-08-30 08:11:00,64.0,63.4,29.93,SE,143,0.0,0.0,98,0.00,,---,0.00,VWS V14.01,2013-08-30 12:11:00,
2013-08-30 08:16:00,64.6,64.0,29.93,SE,144,0.0,0.0,98,0.00,,---,0.00,VWS V14.01,2013-08-30 12:16:00,
2013-08-30 08:21:00,65.0,64.4,29.93,SE,144,0.0,0.0,98,0.00,,---,0.00,VWS V14.01,2013-08-30 12:21:00,
2013-08-30 08:26:00,65.1,64.5,29.93,SE,144,0.0,0.0,98,0.00,,---,0.00,VWS V14.01,2013-08-30 12:26:00,
2013-08-30 08:30:00,65.1,64.5,29.93,SE,143,0.0,0.0,98,0.00,,---,0.00,VWS V14.01,2013-08-30 12:30:00,
2013-08-30 08:31:00,65.2,64.6,29.93,SE,144,0.0,0.0,98,0.00,,---,0.00,VWS V14.01,2013-08-30 12:31:00,
2013-08-30 08:36:00,65.8,65.2,29.93,SE,144,0.0,0.0,98,0.00,,---,0.00,VWS V14.01,2013-08-30 12:36:00,
2013-08-30 08:41:00,66.4,65.8,29.94,SE,144,0.0,0.0,98,0.00,,---,0.00,VWS V14.01,2013-08-30 12:41:00,
2013-08-30 08:46:00,67.0,66.4,29.94,SE,143,0.0,0.0,98,0.00,,---,0.00,VWS V14.01,2013-08-30 12:46:00,
2013-08-30 08:51:00,67.7,67.1,29.94,SE,144,0.0,0.0,98,0.00,,---,0.00,VWS V14.01,2013-08-30 12:51:00,
2013-08-30 08:56:00,68.4,67.8,29.94,SE,143,0.0,0.0,98,0.00,,---,0.00,VWS V14.01,2013-08-30 12:56:00,
2013-08-30 09:00:00,68.9,68.3,29.94,WSW,253,0.0,0.0,98,0.00,,---,0.00,VWS V14.01,2013-08-30 13:00:00,
2013-08-30 09:01:00,69.0,68.4,29.94,WSW,253,0.0,0.0,98,0.00,,---,0.00,VWS V14.01,2013-08-30 13:01:00,
2013-08-30 09:06:00,69.3,68.7,29.93,SW,233,2.0,5.0,98,0.00,,---,0.00,VWS V14.01,2013-08-30 13:06:00,
2013-08-30 09:11:00,69.7,69.1,29.93,WNW,285,0.0,5.0,98,0.00,,---,0.00,VWS V14.01,2013-08-30 13:11:00,
2013-08-30 09:16:00,70.2,69.6,29.93,West,277,0.0,5.0,98,0.00,,---,0.00,VWS V14.01,2013-08-30 13:16:00,
2013-08-30 09:21:00,70.6,70.0,29.93,WSW,244,1.0,5.0,98,0.00,,---,0.00,VWS V14.01,2013-08-30 13:21:00,
2013-08-30 09:26:00,71.4,70.2,29.93,SSW,198,2.0,7.0,96,0.00,,---,0.00,VWS V14.01,2013-08-30 13:26:00,
2013-08-30 09:30:00,72.2,69.8,29.93,South,179,3.0,7.0,92,0.00,,---,0.00,VWS V14.01,2013-08-30 13:30:00,
2013-08-30 09:31:00,72.3,69.8,29.93,SSW,205,5.0,6.0,92,0.00,,---,0.00,VWS V14.01,2013-08-30 13:31:00,
2013-08-30 09:36:00,72.9,69.8,29.93,SSE,168,4.0,6.0,90,0.00,,---,0.00,VWS V14.01,2013-08-30 13:36:00,
2013-08-30 09:41:00,73.5,69.7,29.92,SSE,152,3.0,7.0,88,0.00,,---,0.00,VWS V14.01,2013-08-30 13:41:00,
2013-08-30 09:46:00,74.0,69.9,29.92,WSW,238,1.0,7.0,87,0.00,,---,0.00,VWS V14.01,2013-08-30 13:46:00,
2013-08-30 09:51:00,74.5,70.0,29.92,SSW,210,1.0,7.0,86,0.00,,---,0.00,VWS V14.01,2013-08-30 13:51:00,
2013-08-30 09:56:00,75.0,70.5,29.93,WSW,245,1.0,7.0,86,0.00,,---,0.00,VWS V14.01,2013-08-30 13:56:00,
2013-08-30 10:00:00,75.5,70.7,29.93,SE,141,1.0,7.0,85,0.00,,---,0.00,VWS V14.01,2013-08-30 14:00:00,
2013-08-30 10:01:00,75.5,70.7,29.92,SSE,149,2.0,2.0,85,0.00,,---,0.00,VWS V14.01,2013-08-30 14:01:00,
2013-08-30 10:06:00,76.1,71.3,29.92,SSW,204,0.0,2.0,85,0.00,,---,0.00,VWS V14.01,2013-08-30 14:06:00,
2013-08-30 10:11:00,76.6,71.1,29.92,SSW,207,0.0,3.0,83,0.00,,---,0.00,VWS V14.01,2013-08-30 14:11:00,
2013-08-30 10:16:00,76.9,70.6,29.92,West,271,0.0,7.0,81,0.00,,---,0.00,VWS V14.01,2013-08-30 14:16:00,
2013-08-30 10:21:00,77.1,70.8,29.92,SW,224,2.0,8.0,81,0.00,,---,0.00,VWS V14.01,2013-08-30 14:21:00,
2013-08-30 10:26:00,77.3,71.0,29.92,South,174,3.0,8.0,81,0.00,,---,0.00,VWS V14.01,2013-08-30 14:26:00,
2013-08-30 10:30:00,77.6,71.3,29.92,WNW,297,3.0,8.0,81,0.00,,---,0.00,VWS V14.01,2013-08-30 14:30:00,
2013-08-30 10:31:00,77.7,71.0,29.92,West,270,1.0,3.0,80,0.00,,---,0.00,VWS V14.01,2013-08-30 14:31:00,
2013-08-30 10:36:00,78.1,71.1,29.92,SSW,212,2.0,9.0,79,0.00,,---,0.00,VWS V14.01,2013-08-30 14:36:00,
2013-08-30 10:41:00,78.6,71.6,29.92,SSW,200,5.0,9.0,79,0.00,,---,0.00,VWS V14.01,2013-08-30 14:41:00,
2013-08-30 10:45:00,79.0,71.6,29.92,SSW,203,1.0,9.0,78,0.00,,---,0.00,VWS V14.01,2013-08-30 14:45:00,
2013-08-30 10:50:00,79.2,71.8,29.91,NW,310,1.0,9.0,78,0.00,,---,0.00,VWS V14.01,2013-08-30 14:50:00,
2013-08-30 10:55:00,79.6,71.8,29.91,West,270,4.0,9.0,77,0.00,,---,0.00,VWS V14.01,2013-08-30 14:55:00,
2013-08-30 11:00:00,80.1,72.2,29.91,SW,222,4.0,5.0,77,0.00,,---,0.00,VWS V14.01,2013-08-30 15:00:00,
2013-08-30 11:05:00,80.8,71.7,29.91,ESE,118,1.0,6.0,74,0.00,,---,0.00,VWS V14.01,2013-08-30 15:05:00,
2013-08-30 11:10:00,80.7,70.8,29.91,ESE,115,4.0,11.0,72,0.00,,---,0.00,VWS V14.01,2013-08-30 15:10:00,
2013-08-30 11:15:00,80.6,71.2,29.91,ESE,110,4.0,11.0,73,0.00,,---,0.00,VWS V14.01,2013-08-30 15:15:00,
2013-08-30 11:20:00,80.5,70.7,29.91,WNW,288,2.0,11.0,72,0.00,,---,0.00,VWS V14.01,2013-08-30 15:20:00,
2013-08-30 11:25:00,80.3,71.3,29.91,SE,125,2.0,11.0,74,0.00,,---,0.00,VWS V14.01,2013-08-30 15:25:00,
2013-08-30 11:30:00,80.6,71.2,29.90,SW,235,3.0,5.0,73,0.00,,---,0.00,VWS V14.01,2013-08-30 15:30:00,
2013-08-30 11:35:00,80.4,71.0,29.90,WSW,244,2.0,5.0,73,0.00,,---,0.00,VWS V14.01,2013-08-30 15:35:00,
2013-08-30 11:40:00,80.3,71.3,29.90,SSW,194,3.0,7.0,74,0.00,,---,0.00,VWS V14.01,2013-08-30 15:40:00,
2013-08-30 11:45:00,81.0,71.9,29.90,South,177,1.0,8.0,74,0.00,,---,0.00,VWS V14.01,2013-08-30 15:45:00,
2013-08-30 11:50:00,81.9,71.2,29.90,SW,232,2.0,8.0,70,0.00,,---,0.00,VWS V14.01,2013-08-30 15:50:00,
2013-08-30 11:55:00,82.4,71.2,29.90,ESE,105,3.0,8.0,69,0.00,,---,0.00,VWS V14.01,2013-08-30 15:55:00,
2013-08-30 12:00:00,81.7,71.0,29.90,SSW,205,2.0,2.0,70,0.00,,---,0.00,VWS V14.01,2013-08-30 16:00:00,
2013-08-30 12:05:00,81.1,70.4,29.89,SW,226,1.0,7.0,70,0.00,,---,0.00,VWS V14.01,2013-08-30 16:05:00,
2013-08-30 12:10:00,81.6,70.4,29.89,SSW,205,6.0,7.0,69,0.00,,---,0.00,VWS V14.01,2013-08-30 16:10:00,
2013-08-30 12:15:00,81.9,70.7,29.89,SSW,208,4.0,8.0,69,0.00,,---,0.00,VWS V14.01,2013-08-30 16:15:00,
2013-08-30 12:20:00,82.5,70.4,29.89,WSW,245,4.0,9.0,67,0.00,,---,0.00,VWS V14.01,2013-08-30 16:20:00,
2013-08-30 12:25:00,82.8,71.6,29.89,ESE,112,3.0,9.0,69,0.00,,---,0.00,VWS V14.01,2013-08-30 16:25:00,
2013-08-30 12:30:00,83.4,71.3,29.89,SW,215,2.0,6.0,67,0.00,,---,0.00,VWS V14.01,2013-08-30 16:30:00,
2013-08-30 12:35:00,83.7,71.1,29.89,ENE,78,1.0,7.0,66,0.00,,---,0.00,VWS V14.01,2013-08-30 16:35:00,
2013-08-30 12:40:00,84.2,71.2,29.88,SSE,168,3.0,7.0,65,0.00,,---,0.00,VWS V14.01,2013-08-30 16:40:00,
2013-08-30 12:45:00,83.9,72.2,29.88,SSW,212,6.0,9.0,68,0.00,,---,0.00,VWS V14.01,2013-08-30 16:45:00,
2013-08-30 12:50:00,83.6,71.1,29.88,West,281,3.0,9.0,66,0.00,,---,0.00,VWS V14.01,2013-08-30 16:50:00,
2013-08-30 12:55:00,83.8,71.7,29.88,NNW,327,1.0,9.0,67,0.00,,---,0.00,VWS V14.01,2013-08-30 16:55:00,
2013-08-30 13:00:00,83.7,71.1,29.88,SSW,194,5.0,6.0,66,0.00,,---,0.00,VWS V14.01,2013-08-30 17:00:00,
2013-08-30 13:05:00,84.2,71.6,29.88,WSW,248,5.0,8.0,66,0.00,,---,0.00,VWS V14.01,2013-08-30 17:05:00,
2013-08-30 13:10:00,84.6,70.2,29.88,South,180,2.0,8.0,62,0.00,,---,0.00,VWS V14.01,2013-08-30 17:10:00,
2013-08-30 13:15:00,84.7,70.7,29.87,SSW,212,3.0,8.0,63,0.00,,---,0.00,VWS V14.01,2013-08-30 17:15:00,
2013-08-30 13:20:00,84.5,71.0,29.87,WSW,255,3.0,8.0,64,0.00,,---,0.00,VWS V14.01,2013-08-30 17:20:00,
2013-08-30 13:25:00,84.4,70.4,29.87,South,181,4.0,8.0,63,0.00,,---,0.00,VWS V14.01,2013-08-30 17:25:00,
2013-08-30 13:30:00,84.4,70.4,29.87,NNE,19,2.0,2.0,63,0.00,,---,0.00,VWS V14.01,2013-08-30 17:30:00,
2013-08-30 13:35:00,84.5,71.0,29.87,WNW,302,3.0,7.0,64,0.00,,---,0.00,VWS V14.01,2013-08-30 17:35:00,
2013-08-30 13:40:00,84.7,70.7,29.87,SW,225,4.0,7.0,63,0.00,,---,0.00,VWS V14.01,2013-08-30 17:40:00,
2013-08-30 13:45:00,84.8,70.3,29.87,WSW,240,1.0,7.0,62,0.00,,---,0.00,VWS V14.01,2013-08-30 17:45:00,
2013-08-30 13:50:00,84.4,70.4,29.86,WSW,248,1.0,7.0,63,0.00,,---,0.00,VWS V14.01,2013-08-30 17:50:00,
2013-08-30 13:55:00,84.2,70.2,29.87,WSW,256,4.0,7.0,63,0.00,,---,0.00,VWS V14.01,2013-08-30 17:55:00,
2013-08-30 14:00:00,84.9,70.9,29.86,WNW,300,3.0,4.0,63,0.00,,---,0.00,VWS V14.01,2013-08-30 18:00:00,
2013-08-30 14:05:00,85.7,72.1,29.86,South,187,3.0,6.0,64,0.00,,---,0.00,VWS V14.01,2013-08-30 18:05:00,
2013-08-30 14:10:00,86.6,70.6,29.86,SSE,148,3.0,8.0,59,0.00,,---,0.00,VWS V14.01,2013-08-30 18:10:00,
2013-08-30 14:15:00,86.6,70.6,29.86,South,191,1.0,8.0,59,0.00,,---,0.00,VWS V14.01,2013-08-30 18:15:00,
2013-08-30 14:20:00,86.7,70.7,29.86,SSW,208,5.0,8.0,59,0.00,,---,0.00,VWS V14.01,2013-08-30 18:20:00,
2013-08-30 14:25:00,86.8,71.3,29.86,WSW,240,1.0,8.0,60,0.00,,---,0.00,VWS V14.01,2013-08-30 18:25:00,
2013-08-30 14:30:00,86.9,70.4,29.86,ESE,104,0.0,0.0,58,0.00,,---,0.00,VWS V14.01,2013-08-30 18:30:00,
2013-08-30 14:35:00,86.6,71.1,29.86,SSE,160,7.0,7.0,60,0.00,,---,0.00,VWS V14.01,2013-08-30 18:35:00,
2013-08-30 14:40:00,87.3,70.2,29.86,West,278,3.0,8.0,57,0.00,,---,0.00,VWS V14.01,2013-08-30 18:40:00,
2013-08-30 14:45:00,87.1,71.5,29.85,SW,236,1.0,8.0,60,0.00,,---,0.00,VWS V14.01,2013-08-30 18:45:00,
2013-08-30 14:50:00,87.5,70.4,29.85,SSW,212,4.0,8.0,57,0.00,,---,0.00,VWS V14.01,2013-08-30 18:50:00,
2013-08-30 14:55:00,87.2,71.1,29.85,SE,130,3.0,8.0,59,0.00,,---,0.00,VWS V14.01,2013-08-30 18:55:00,
2013-08-30 15:00:00,87.5,70.9,29.84,SW,226,1.0,2.0,58,0.00,,---,0.00,VWS V14.01,2013-08-30 19:00:00,
2013-08-30 15:05:00,87.9,71.3,29.84,SSW,201,4.0,7.0,58,0.00,,---,0.00,VWS V14.01,2013-08-30 19:05:00,
2013-08-30 15:10:00,87.7,70.6,29.84,West,267,4.0,9.0,57,0.00,,---,0.00,VWS V14.01,2013-08-30 19:10:00,
2013-08-30 15:15:00,87.4,70.8,29.84,WSW,257,3.0,9.0,58,0.00,,---,0.00,VWS V14.01,2013-08-30 19:15:00,
2013-08-30 15:20:00,87.2,70.6,29.84,SSE,148,5.0,9.0,58,0.00,,---,0.00,VWS V14.01,2013-08-30 19:20:00,
2013-08-30 15:25:00,87.7,70.6,29.84,SW,221,7.0,9.0,57,0.00,,---,0.00,VWS V14.01,2013-08-30 19:25:00,
2013-08-30 15:30:00,87.7,70.1,29.83,SW,221,5.0,6.0,56,0.00,,---,0.00,VWS V14.01,2013-08-30 19:30:00,
2013-08-30 15:35:00,87.6,71.0,29.83,WNW,293,1.0,8.0,58,0.00,,---,0.00,VWS V14.01,2013-08-30 19:35:00,
2013-08-30 15:40:00,88.0,70.3,29.83,West,279,3.0,8.0,56,0.00,,---,0.00,VWS V14.01,2013-08-30 19:40:00,
2013-08-30 15:45:00,87.8,70.7,29.83,SE,130,5.0,8.0,57,0.00,,---,0.00,VWS V14.01,2013-08-30 19:45:00,
2013-08-30 15:50:00,87.9,71.3,29.82,SSW,204,4.0,9.0,58,0.00,,---,0.00,VWS V14.01,2013-08-30 19:50:00,
2013-08-30 15:55:00,88.4,71.2,29.82,NW,311,2.0,9.0,57,0.00,,---,0.00,VWS V14.01,2013-08-30 19:55:00,
2013-08-30 16:00:00,88.3,71.7,29.82,WSW,246,2.0,9.0,58,0.00,,---,0.00,VWS V14.01,2013-08-30 20:00:00,
2013-08-30 16:05:00,88.4,71.8,29.82,WSW,246,5.0,5.0,58,0.00,,---,0.00,VWS V14.01,2013-08-30 20:05:00,
2013-08-30 16:10:00,88.3,71.2,29.81,SW,214,1.0,7.0,57,0.00,,---,0.00,VWS V14.01,2013-08-30 20:10:00,
2013-08-30 16:15:00,88.2,71.1,29.82,SSW,198,4.0,10.0,57,0.00,,---,0.00,VWS V14.01,2013-08-30 20:15:00,
2013-08-30 16:20:00,88.3,70.6,29.81,West,271,3.0,10.0,56,0.00,,---,0.00,VWS V14.01,2013-08-30 20:20:00,
2013-08-30 16:25:00,88.7,71.0,29.81,SSW,204,3.0,10.0,56,0.00,,---,0.00,VWS V14.01,2013-08-30 20:25:00,
2013-08-30 16:30:00,88.8,71.1,29.81,SW,231,0.0,1.0,56,0.00,,---,0.00,VWS V14.01,2013-08-30 20:30:00,
2013-08-30 16:35:00,88.9,71.2,29.81,SSW,200,2.0,5.0,56,0.00,,---,0.00,VWS V14.01,2013-08-30 20:35:00,
2013-08-30 16:40:00,88.9,71.7,29.80,South,184,2.0,6.0,57,0.00,,---,0.00,VWS V14.01,2013-08-30 20:40:00,
2013-08-30 16:45:00,89.1,71.4,29.80,East,91,1.0,6.0,56,0.00,,---,0.00,VWS V14.01,2013-08-30 20:45:00,
2013-08-30 16:50:00,89.0,70.8,29.80,SW,224,0.0,6.0,55,0.00,,---,0.00,VWS V14.01,2013-08-30 20:50:00,
2013-08-30 16:55:00,88.8,71.1,29.80,SSW,198,4.0,7.0,56,0.00,,---,0.00,VWS V14.01,2013-08-30 20:55:00,
2013-08-30 17:00:00,88.8,70.6,29.80,West,274,2.0,10.0,55,0.00,,---,0.00,VWS V14.01,2013-08-30 21:00:00,
2013-08-30 17:05:00,88.8,71.1,29.79,SW,224,2.0,5.0,56,0.00,,---,0.00,VWS V14.01,2013-08-30 21:05:00,
2013-08-30 17:10:00,89.2,71.5,29.80,WSW,239,1.0,6.0,56,0.00,,---,0.00,VWS V14.01,2013-08-30 21:10:00,
2013-08-30 17:15:00,89.0,70.8,29.79,SW,235,3.0,8.0,55,0.00,,---,0.00,VWS V14.01,2013-08-30 21:15:00,
2013-08-30 17:20:00,89.3,71.6,29.79,WSW,252,0.0,8.0,56,0.00,,---,0.00,VWS V14.01,2013-08-30 21:20:00,
2013-08-30 17:25:00,89.7,71.4,29.79,SE,125,3.0,8.0,55,0.00,,---,0.00,VWS V14.01,2013-08-30 21:25:00,
2013-08-30 17:30:00,89.7,71.9,29.79,West,270,4.0,5.0,56,0.00,,---,0.00,VWS V14.01,2013-08-30 21:30:00,
2013-08-30 17:35:00,89.3,71.6,29.78,South,187,3.0,7.0,56,0.00,,---,0.00,VWS V14.01,2013-08-30 21:35:00,
2013-08-30 17:40:00,89.2,71.5,29.78,SSW,212,5.0,8.0,56,0.00,,---,0.00,VWS V14.01,2013-08-30 21:40:00,
2013-08-30 17:45:00,89.0,71.8,29.78,West,275,4.0,8.0,57,0.00,,---,0.00,VWS V14.01,2013-08-30 21:45:00,
2013-08-30 17:50:00,89.1,71.9,29.78,SSW,205,1.0,8.0,57,0.00,,---,0.00,VWS V14.01,2013-08-30 21:50:00,
2013-08-30 17:56:00,89.0,71.3,29.78,WNW,293,3.0,8.0,56,0.00,,---,0.00,VWS V14.01,2013-08-30 21:56:00,
2013-08-30 18:00:00,88.9,71.7,29.78,West,273,2.0,8.0,57,0.00,,---,0.00,VWS V14.01,2013-08-30 22:00:00,
2013-08-30 18:01:00,89.0,71.8,29.78,WSW,248,2.0,2.0,57,0.00,,---,0.00,VWS V14.01,2013-08-30 22:01:00,
2013-08-30 18:06:00,88.8,71.1,29.77,WSW,238,1.0,7.0,56,0.00,,---,0.00,VWS V14.01,2013-08-30 22:06:00,
2013-08-30 18:11:00,88.7,71.0,29.77,West,260,2.0,8.0,56,0.00,,---,0.00,VWS V14.01,2013-08-30 22:11:00,
2013-08-30 18:16:00,88.8,71.1,29.77,SE,138,3.0,8.0,56,0.00,,---,0.00,VWS V14.01,2013-08-30 22:16:00,
2013-08-30 18:21:00,88.5,71.3,29.77,SSW,194,0.0,8.0,57,0.00,,---,0.00,VWS V14.01,2013-08-30 22:21:00,
2013-08-30 18:26:00,88.4,71.2,29.77,SSE,160,2.0,8.0,57,0.00,,---,0.00,VWS V14.01,2013-08-30 22:26:00,
2013-08-30 18:30:00,88.3,71.2,29.76,WSW,238,1.0,8.0,57,0.00,,---,0.00,VWS V14.01,2013-08-30 22:30:00,
2013-08-30 18:31:00,88.3,71.2,29.76,South,190,1.0,2.0,57,0.00,,---,0.00,VWS V14.01,2013-08-30 22:31:00,
2013-08-30 18:36:00,88.5,71.3,29.76,WSW,249,3.0,8.0,57,0.00,,---,0.00,VWS V14.01,2013-08-30 22:36:00,
2013-08-30 18:41:00,88.4,71.2,29.76,SSE,160,5.0,8.0,57,0.00,,---,0.00,VWS V14.01,2013-08-30 22:41:00,
2013-08-30 18:46:00,88.2,71.1,29.77,SSW,201,4.0,10.0,57,0.00,,---,0.00,VWS V14.01,2013-08-30 22:46:00,
2013-08-30 18:51:00,88.1,71.5,29.76,WSW,248,3.0,10.0,58,0.00,,---,0.00,VWS V14.01,2013-08-30 22:51:00,
2013-08-30 18:56:00,87.9,71.3,29.77,SSE,160,1.0,10.0,58,0.00,,---,0.00,VWS V14.01,2013-08-30 22:56:00,
2013-08-30 19:00:00,87.9,71.8,29.76,SW,235,0.0,10.0,59,0.00,,---,0.00,VWS V14.01,2013-08-30 23:00:00,
2013-08-30 19:01:00,87.9,71.8,29.76,SW,235,0.0,1.0,59,0.00,,---,0.00,VWS V14.01,2013-08-30 23:01:00,
2013-08-30 19:06:00,87.8,72.2,29.76,SW,221,0.0,4.0,60,0.00,,---,0.00,VWS V14.01,2013-08-30 23:06:00,
2013-08-30 19:11:00,87.9,71.8,29.76,SSW,207,0.0,4.0,59,0.00,,---,0.00,VWS V14.01,2013-08-30 23:11:00,
2013-08-30 19:16:00,87.7,72.1,29.76,South,188,0.0,4.0,60,0.00,,---,0.00,VWS V14.01,2013-08-30 23:16:00,
2013-08-30 19:21:00,87.4,71.8,29.76,SW,226,2.0,4.0,60,0.00,,---,0.00,VWS V14.01,2013-08-30 23:21:00,
2013-08-30 19:26:00,86.7,72.1,29.76,SSW,208,2.0,4.0,62,0.00,,---,0.00,VWS V14.01,2013-08-30 23:26:00,
2013-08-30 19:30:00,86.1,72.0,29.76,SSW,195,1.0,4.0,63,0.00,,---,0.00,VWS V14.01,2013-08-30 23:30:00,
2013-08-30 19:31:00,86.1,72.0,29.76,SSW,211,2.0,2.0,63,0.00,,---,0.00,VWS V14.01,2013-08-30 23:31:00,
2013-08-30 19:36:00,85.5,71.9,29.75,SSE,149,2.0,3.0,64,0.00,,---,0.00,VWS V14.01,2013-08-30 23:36:00,
2013-08-30 19:41:00,85.0,71.9,29.75,SE,129,0.0,3.0,65,0.00,,---,0.00,VWS V14.01,2013-08-30 23:41:00,
2013-08-30 19:46:00,84.5,71.9,29.75,SE,129,4.0,4.0,66,0.00,,---,0.00,VWS V14.01,2013-08-30 23:46:00,
2013-08-30 19:51:00,84.1,72.0,29.75,SE,144,0.0,4.0,67,0.00,,---,0.00,VWS V14.01,2013-08-30 23:51:00,
2013-08-30 19:56:00,83.7,71.6,29.75,SE,137,1.0,4.0,67,0.00,,---,0.00,VWS V14.01,2013-08-30 23:56:00,
2013-08-30 20:00:00,83.5,71.8,29.75,SE,141,0.0,4.0,68,0.00,,---,0.00,VWS V14.01,2013-08-31 00:00:00,
2013-08-30 20:01:00,83.5,71.8,29.75,SE,139,1.0,1.0,68,0.00,,---,0.00,VWS V14.01,2013-08-31 00:01:00,
2013-08-30 20:06:00,83.1,71.4,29.75,SE,132,0.0,1.0,68,0.00,,---,0.00,VWS V14.01,2013-08-31 00:06:00,
2013-08-30 20:11:00,82.7,71.5,29.76,SE,132,0.0,1.0,69,0.00,,---,0.00,VWS V14.01,2013-08-31 00:11:00,
2013-08-30 20:16:00,82.5,71.7,29.76,South,191,0.0,2.0,70,0.00,,---,0.00,VWS V14.01,2013-08-31 00:16:00,
2013-08-30 20:21:00,82.4,71.6,29.76,SSE,159,0.0,2.0,70,0.00,,---,0.00,VWS V14.01,2013-08-31 00:21:00,
2013-08-30 20:26:00,82.1,71.3,29.76,ESE,115,0.0,2.0,70,0.00,,---,0.00,VWS V14.01,2013-08-31 00:26:00,
2013-08-30 20:30:00,81.9,71.6,29.76,ESE,122,0.0,2.0,71,0.00,,---,0.00,VWS V14.01,2013-08-31 00:30:00,
2013-08-30 20:31:00,81.9,71.6,29.76,ESE,122,0.0,0.0,71,0.00,,---,0.00,VWS V14.01,2013-08-31 00:31:00,
2013-08-30 20:36:00,81.4,71.5,29.76,ESE,121,0.0,1.0,72,0.00,,---,0.00,VWS V14.01,2013-08-31 00:36:00,
2013-08-30 20:41:00,81.4,71.5,29.76,SE,124,0.0,2.0,72,0.00,,---,0.00,VWS V14.01,2013-08-31 00:41:00,
2013-08-30 20:46:00,81.2,71.3,29.76,SE,130,0.0,2.0,72,0.00,,---,0.00,VWS V14.01,2013-08-31 00:46:00,
2013-08-30 20:51:00,81.1,71.2,29.76,SSE,153,0.0,2.0,72,0.00,,---,0.00,VWS V14.01,2013-08-31 00:51:00,
2013-08-30 20:56:00,80.7,71.2,29.76,SSE,155,0.0,2.0,73,0.00,,---,0.00,VWS V14.01,2013-08-31 00:56:00,
2013-08-30 21:00:00,80.3,71.3,29.77,SSE,153,0.0,2.0,74,0.00,,---,0.00,VWS V14.01,2013-08-31 01:00:00,
2013-08-30 21:01:00,80.3,71.3,29.77,SSE,153,0.0,0.0,74,0.00,,---,0.00,VWS V14.01,2013-08-31 01:01:00,
2013-08-30 21:06:00,79.8,71.6,29.77,SSE,152,0.0,0.0,76,0.00,,---,0.00,VWS V14.01,2013-08-31 01:06:00,
2013-08-30 21:11:00,79.5,71.3,29.77,SSE,152,0.0,0.0,76,0.00,,---,0.00,VWS V14.01,2013-08-31 01:11:00,
2013-08-30 21:16:00,79.4,71.2,29.77,SSE,165,0.0,0.0,76,0.00,,---,0.00,VWS V14.01,2013-08-31 01:16:00,
2013-08-30 21:21:00,79.7,71.5,29.77,SSE,153,0.0,0.0,76,0.00,,---,0.00,VWS V14.01,2013-08-31 01:21:00,
2013-08-30 21:26:00,79.6,71.8,29.77,SE,130,0.0,1.0,77,0.00,,---,0.00,VWS V14.01,2013-08-31 01:26:00,
2013-08-30 21:30:00,79.4,71.6,29.77,SE,134,0.0,1.0,77,0.00,,---,0.00,VWS V14.01,2013-08-31 01:30:00,
2013-08-30 21:31:00,79.5,71.7,29.77,SE,145,1.0,1.0,77,0.00,,---,0.00,VWS V14.01,2013-08-31 01:31:00,
2013-08-30 21:36:00,79.8,71.6,29.76,SE,139,1.0,2.0,76,0.00,,---,0.00,VWS V14.01,2013-08-31 01:36:00,
2013-08-30 21:41:00,80.1,71.5,29.76,SE,145,1.0,2.0,75,0.00,,---,0.00,VWS V14.01,2013-08-31 01:41:00,
2013-08-30 21:46:00,80.2,71.6,29.76,SE,144,0.0,2.0,75,0.00,,---,0.00,VWS V14.01,2013-08-31 01:46:00,
2013-08-30 21:51:00,80.3,71.7,29.76,South,186,1.0,4.0,75,0.00,,---,0.00,VWS V14.01,2013-08-31 01:51:00,
2013-08-30 21:56:00,80.5,71.8,29.76,SE,127,2.0,4.0,75,0.00,,---,0.00,VWS V14.01,2013-08-31 01:56:00,
2013-08-30 22:00:00,80.7,71.7,29.76,SSE,158,1.0,4.0,74,0.00,,---,0.00,VWS V14.01,2013-08-31 02:00:00,
2013-08-30 22:01:00,80.7,71.7,29.76,ESE,114,1.0,1.0,74,0.00,,---,0.00,VWS V14.01,2013-08-31 02:01:00,
2013-08-30 22:06:00,80.9,71.8,29.75,SSE,158,1.0,5.0,74,0.00,,---,0.00,VWS V14.01,2013-08-31 02:06:00,
2013-08-30 22:11:00,81.1,71.6,29.75,SE,135,2.0,5.0,73,0.00,,---,0.00,VWS V14.01,2013-08-31 02:11:00,
2013-08-30 22:16:00,81.2,71.7,29.75,South,184,4.0,5.0,73,0.00,,---,0.00,VWS V14.01,2013-08-31 02:16:00,
2013-08-30 22:21:00,81.4,71.9,29.74,SE,129,1.0,5.0,73,0.00,,---,0.00,VWS V14.01,2013-08-31 02:21:00,
2013-08-30 22:26:00,81.4,71.9,29.73,SSE,165,4.0,5.0,73,0.00,,---,0.00,VWS V14.01,2013-08-31 02:26:00,
2013-08-30 22:30:00,81.5,71.6,29.73,SSE,148,2.0,9.0,72,0.00,,---,0.00,VWS V14.01,2013-08-31 02:30:00,
2013-08-30 22:31:00,81.6,71.7,29.73,SW,225,4.0,4.0,72,0.00,,---,0.00,VWS V14.01,2013-08-31 02:31:00,
2013-08-30 22:36:00,81.7,71.8,29.73,WSW,242,3.0,6.0,72,0.00,,---,0.00,VWS V14.01,2013-08-31 02:36:00,
2013-08-30 22:41:00,81.9,72.0,29.73,WSW,257,6.0,11.0,72,0.00,,---,0.00,VWS V14.01,2013-08-31 02:41:00,
2013-08-30 22:46:00,82.0,72.1,29.72,SSW,198,6.0,11.0,72,0.00,,---,0.00,VWS V14.01,2013-08-31 02:46:00,
2013-08-30 22:51:00,82.1,72.2,29.72,SSW,211,3.0,11.0,72,0.00,,---,0.00,VWS V14.01,2013-08-31 02:51:00,
2013-08-30 22:56:00,82.2,72.3,29.72,SE,129,1.0,11.0,72,0.00,,---,0.00,VWS V14.01,2013-08-31 02:56:00,
2013-08-30 23:00:00,82.2,72.7,29.73,SW,228,2.0,11.0,73,0.00,,---,0.00,VWS V14.01,2013-08-31 03:00:00,
2013-08-30 23:01:00,82.2,72.7,29.73,WNW,291,2.0,2.0,73,0.00,,---,0.00,VWS V14.01,2013-08-31 03:01:00,
2013-08-30 23:06:00,82.0,72.5,29.73,South,187,1.0,5.0,73,0.00,,---,0.00,VWS V14.01,2013-08-31 03:06:00,
2013-08-30 23:11:00,81.7,72.6,29.73,SE,139,2.0,5.0,74,0.00,,---,0.00,VWS V14.01,2013-08-31 03:11:00,
2013-08-30 23:16:00,81.4,72.7,29.73,SW,235,0.0,7.0,75,0.00,,---,0.00,VWS V14.01,2013-08-31 03:16:00,
2013-08-30 23:21:00,81.1,72.4,29.72,SSW,207,6.0,7.0,75,0.00,,---,0.00,VWS V14.01,2013-08-31 03:21:00,
2013-08-30 23:26:00,81.2,72.9,29.72,SW,236,1.0,9.0,76,0.00,,---,0.00,VWS V14.01,2013-08-31 03:26:00,
2013-08-30 23:30:00,81.0,72.7,29.72,SE,132,2.0,9.0,76,0.00,,---,0.00,VWS V14.01,2013-08-31 03:30:00,
2013-08-30 23:31:00,81.0,72.7,29.72,SSE,166,2.0,3.0,76,0.00,,---,0.00,VWS V14.01,2013-08-31 03:31:00,
2013-08-30 23:36:00,80.8,72.5,29.72,SSE,149,4.0,4.0,76,0.00,,---,0.00,VWS V14.01,2013-08-31 03:36:00,
2013-08-30 23:41:00,80.5,72.6,29.72,SW,221,0.0,4.0,77,0.00,,---,0.00,VWS V14.01,2013-08-31 03:41:00,
2013-08-30 23:46:00,80.3,72.4,29.72,SSW,207,1.0,4.0,77,0.00,,---,0.00,VWS V14.01,2013-08-31 03:46:00,
2013-08-30 23:51:00,80.1,72.6,29.72,SE,129,1.0,4.0,78,0.00,,---,0.00,VWS V14.01,2013-08-31 03:51:00,
2013-08-30 23:56:00,79.8,72.3,29.72,SW,233,1.0,4.0,78,0.00,,---,0.00,VWS V14.01,2013-08-31 03:56:00,